カタログに戻る

ECHOSTAR 21

運用中通信GEO
NORAD 42749·PAYLOAD·🇺🇸 United States

打ち上げ Jun 8, 2017 から Baikonur Cosmodrome

Loading…

TLE

最新Source: Space-Track

元期: Sep 14, 2026, 13:51 UTC

1 42749U 17032A   26257.57718102  .00000058  00000-0  00000-0 0  9995
2 42749   1.7817   1.4124 0002341 175.4897  34.6910  1.00272272 33995

AllMySatでECHOSTAR 21をリアルタイム追跡

Download on the App Store